COSMOS 970 DEB, 10566

Orbit data source: Space-Track

COSMOS 970 DEB, 10566 is space debris in LEO originally from a launch on Wed, 21 Dec 1977 UTC launched from the Tyuratam Missile And Space Complex (TTMTR). Debris objects in space refer to the collection of defunct objects orbiting the Earth. Examples of debris include non-operational satellites, rocket bodies, and fragments generated from explosions, collisions, or faulty payload assembly.

Loading next visibility...
Identifier
10566, 1977-121H
Orbit
LEO
Country
Flag of CISCIS
Related business
Manufacturer
Unknown
Mission
Spacecraft
Bus & Motor
Unknown
Mass
Unknown
Launch date (UTC)
1977-12-21 (48 years ago)
Launch vehicle
Unknown
Launch site
Tyuratam Missile And Space Complex (TTMTR)
Object type
Payload
Rocket body
Debris
Shape & HBR
Unknown shape, 0.1 m
Radar Cross Section
Medium (>0.1 m² and <1 m²)

Expand to show TLE details & history
Last TLE update: 18 hours ago

TLE from 18 hours ago
0 COSMOS 970 DEB
1 10566U 77121H   26171.23571020  .00001726  00000-0  25143-2 0  9996
2 10566  65.7672 230.4059 0418357 256.0818  99.3364 13.26748690329378
Epoch: 2026-06-20T05:39Z
TLE epoch observation values (Epoch: 2026-06-20T05:39:25.361Z)
Latitude
-0.00001°
Longitude
-122.90301°
Altitude
1,224.848 km
Speed
7.212 km/s
True Right ascension
15h 21m 37s
True Declination
0° 00' 00"
Sunlit
Object was in full shadow at epoch
Visualization orbit readout
Latitude
Unknown
Longitude
Unknown
Altitude
Unknown
Speed
Unknown
Apparent Right ascension
Unknown
Apparent Declination
Unknown
Sunlit
N/A
Visualization observer readout
Local Sidereal Time
10:12:23
Azimuth
Unknown
Elevation
Unknown
Doppler factor
Unknown
Orbital elements
Apogee altitude
1,472.871 km
Perigee altitude
842.345 km
Semi-major axis
7,535.745 km
Eccentricity
0.04184
Inclination
65.7672°
RAAN
230.4059°
Arg. of periapsis
256.0818°
True anomaly
104.02188°
Mean anomaly
99.3364°
Eccentric anomaly
101.68374°
Mean motion
3.31783 °/min
Orbital period
108.5 mins
BSTAR
0.0025143
Loading maneuver chart data...
Computing Atmospheric mass density...
Loading historical data...
Loading historical data...
Loading historical data...
Loading historical data...
Loading historical data...
Loading historical data...
Loading historical data...

Documentation

Showing up to 5 results
|